Temperature
20 21 21 21 21 20 20 19 19 19 19 19 19 19 19 19 19 19 19 19 19 19 19 19 19 19 19 19 19 19 19 19 19 19 19 19 19 19 19 19 19 19 19
20 21 21 21 21 20 20 19 19 19 19 19 19 19 19 19 19 19 19 19 19 19 19 19 18 19 19 19 19 19 19 19 19 19 19 19 19 19 19 19 19 19 19
20 21 21 21 20 20 20 19 19 19 19 19 19 19 19 19 19 19 19 19 19 19 19 18 18 18 18 18 18 18 19 19 19 18 18 18 19 19 19 19 19 19 19
20 20 20 20 20 20 19 19 19 19 19 19 19 19 18 18 18 19 19 19 19 19 18 18 18 18 18 18 18 18 18 18 18 18 18 18 18 19 19 19 19 19 19
20 19 20 20 20 19 19 19 19 19 19 19 19 19 18 18 18 18 18 19 19 19 18 18 18 18 18 18 18 18 18 18 18 18 18 18 19 19 19 19 19 19 19
20 19 20 20 20 19 19 19 19 19 19 19 19 19 18 18 18 18 18 18 19 19 18 18 18 18 18 18 18 19 18 18 18 18 18 18 19 19 19 19 19 19 19
20 19 20 20 20 19 19 19 19 18 18 18 19 18 18 18 18 18 18 18 18 18 18 18 18 18 18 18 19 19 18 18 17 18 18 18 18 18 18 18 19 18 18
20 19 19 20 20 19 19 19 19 18 18 18 18 18 18 18 18 18 18 18 18 18 18 18 18 18 18 18 18 18 18 18 17 17 18 18 18 18 18 18 18 18 18
20 19 19 20 20 19 19 19 19 19 18 18 18 18 18 18 18 18 18 18 18 18 18 18 18 19 19 18 18 18 18 18 17 17 18 18 18 19 18 18 18 18 18
20 20 19 19 19 19 19 19 19 19 19 18 18 18 18 18 18 18 18 18 18 18 18 18 18 18 18 18 18 18 18 17 17 17 17 18 18 18 19 19 18 18 18
21 20 20 19 19 19 18 19 19 19 19 18 18 18 18 18 18 17 18 18 18 18 18 18 18 18 18 18 18 17 17 17 17 17 17 17 18 18 18 18 18 18 18
22 21 21 20 19 19 18 19 19 19 19 18 18 18 18 17 17 17 18 18 18 18 18 17 17 17 18 18 17 17 17 17 17 17 17 17 17 18 18 18 18 18 18
23 22 21 20 20 19 19 19 19 19 18 18 18 18 17 17 17 17 18 18 18 17 17 17 17 18 18 18 17 17 17 17 17 17 17 17 17 17 17 17 17 18 18
23 22 22 21 20 20 19 19 19 18 18 18 18 18 18 18 17 17 17 17 17 17 17 17 17 17 18 18 17 17 17 17 17 17 17 17 17 17 17 17 17 17 17
23 22 22 22 21 20 19 19 19 18 18 18 18 18 18 18 18 17 17 17 17 17 17 17 18 18 18 17 17 17 17 17 16 17 17 17 17 17 17 17 17 17 17
24 23 22 22 21 20 20 19 19 18 18 18 18 18 18 18 18 18 18 17 18 18 17 17 18 17 17 17 17 16 16 16 16 16 16 16 16 17 17 17 17 17 17
24 23 22 22 21 21 20 19 19 19 18 18 18 18 18 18 18 18 18 17 17 17 17 17 17 17 17 17 16 16 16 16 16 16 16 16 16 16 17 17 17 17 17
25 24 23 22 22 21 20 20 19 19 18 18 18 18 18 18 18 18 18 18 17 17 17 17 17 17 17 16 16 16 16 16 16 16 16 16 16 16 17 17 17 17 17
25 24 23 22 21 21 20 20 20 19 19 18 18 18 18 18 18 18 18 18 18 17 17 17 17 17 17 17 16 16 16 16 16 16 16 16 16 17 17 17 17 17 17
25 24 24 22 21 21 20 19 19 19 18 18 18 18 18 18 18 18 18 18 18 17 17 17 17 17 17 17 16 16 16 16 16 16 16 16 16 17 17 17 17 17 17
25 24 23 22 21 20 19 19 19 19 19 18 18 18 18 18 18 18 17 17 17 17 17 17 17 17 17 16 16 16 16 16 16 15 16 16 16 16 16 16 16 17 17
24 24 23 22 21 20 19 19 18 19 18 18 18 18 18 18 17 17 17 17 17 17 17 17 17 16 16 16 16 16 16 16 16 15 15 16 16 16 15 16 16 16 16
23 22 22 22 21 20 18 18 18 18 18 18 18 18 17 17 17 17 17 17 17 17 17 16 17 16 16 16 16 16 16 16 15 16 16 16 16 15 15 15 15 15 16
22 21 21 21 20 19 18 18 18 17 18 18 17 17 17 17 17 17 17 17 16 16 16 16 16 16 16 16 16 16 17 17 16 16 15 15 16 15 15 15 15 15 15
21 21 21 20 19 19 18 18 17 17 17 17 17 17 17 17 17 17 17 16 16 16 16 16 16 16 16 16 15 16 16 17 17 17 16 16 16 15 15 15 15 15 15
21 20 20 20 19 19 18 17 17 17 17 17 17 17 16 17 16 16 16 16 16 16 16 16 16 15 16 15 15 15 16 17 17 17 17 17 16 16 15 15 15 15 15
Wind_Speed
11 14 16 14 12 10 9 9 9 10 10 10 9 9 8 8 9 10 12 12 11 10 9 9 9 9 10 10 10 9 9 10 10 10 10 9 8 7 6 6 5 9 8
15 16 15 13 12 10 9 9 10 10 9 9 9 9 9 10 11 11 11 11 10 10 10 9 10 10 10 10 10 9 9 8 7 7 6 6 7 6 6 8 12 9 9
17 16 14 12 11 10 10 9 10 10 9 8 9 9 10 11 11 10 10 9 8 10 10 10 11 11 11 12 11 10 9 7 6 4 2 4 6 6 7 10 11 10 10
17 15 14 13 11 10 10 10 10 10 9 8 9 8 9 10 10 10 10 10 9 10 11 11 13 14 14 14 14 12 10 7 5 4 4 8 6 8 9 9 10 10 10
15 15 16 15 11 10 10 10 10 10 10 9 8 8 9 10 11 10 10 9 9 10 11 12 13 14 14 15 14 12 9 8 7 8 11 11 9 9 9 8 9 9 9
14 15 17 15 12 11 10 10 10 10 10 10 9 8 9 10 10 10 9 9 9 10 11 11 11 13 13 14 13 12 10 10 6 12 13 12 9 8 8 8 8 9 8
14 14 16 14 12 11 10 10 9 10 11 11 9 9 9 10 10 10 9 8 8 9 9 9 10 12 12 12 12 11 11 13 4 13 13 12 10 10 9 8 8 7 7
13 13 15 13 12 11 10 10 11 11 11 11 11 10 10 11 10 10 10 8 8 8 8 9 11 11 12 11 11 9 9 11 5 11 14 13 13 12 10 9 8 8 8
12 12 13 13 12 11 11 12 12 12 12 12 12 12 12 12 11 11 10 9 8 8 9 10 10 11 10 9 6 4 6 9 9 5 13 12 12 11 11 9 9 8 8
12 11 13 14 14 13 12 13 13 13 13 13 13 13 13 12 12 11 10 9 9 8 8 8 8 7 6 4 2 0 4 9 5 12 12 11 11 9 9 9 8 7 7
14 12 12 13 12 13 15 14 13 13 13 13 12 13 14 13 12 10 12 11 9 9 9 7 6 6 5 4 3 2 5 3 9 13 11 9 9 7 7 7 7 6 6
11 13 12 13 11 9 12 12 11 11 12 12 12 13 12 10 11 13 13 11 10 9 9 7 7 8 9 8 8 4 1 9 10 11 10 8 7 6 6 6 6 6 6
8 9 14 13 12 11 8 8 6 6 8 9 13 14 12 11 12 12 9 9 9 10 9 7 8 9 6 3 3 6 8 11 11 11 10 9 8 8 7 7 7 7 6
11 8 9 13 12 12 10 7 6 4 4 4 7 10 8 4 5 7 7 8 9 9 7 7 5 1 4 6 8 8 11 10 10 11 12 12 11 10 9 9 10 9 8
11 10 8 10 13 11 10 8 9 7 6 6 6 5 7 4 6 5 4 6 7 8 5 2 2 4 5 7 8 8 7 10 12 11 13 17 16 14 12 12 13 13 12
12 12 10 8 11 12 10 7 8 6 5 7 6 5 7 5 4 6 5 4 2 4 6 3 5 5 5 4 5 4 5 8 11 11 12 16 19 18 16 15 15 14 14
14 13 13 9 10 11 11 10 8 5 7 4 5 9 9 6 5 5 5 5 3 4 5 4 5 3 7 5 4 5 4 5 6 10 10 11 14 18 19 18 17 16 15
13 12 13 11 9 10 8 8 8 6 5 4 6 6 8 9 7 4 5 6 6 6 3 5 4 2 5 5 5 3 5 1 4 8 10 9 9 12 14 17 19 18 17
11 11 14 10 8 8 7 5 6 7 8 5 6 4 6 8 8 4 5 4 6 4 4 6 4 3 4 4 5 3 4 3 2 4 6 9 9 12 10 13 16 17 17
9 9 11 10 8 7 6 4 3 3 4 4 5 5 6 5 8 5 4 5 4 5 4 5 6 3 4 4 5 5 3 2 4 5 4 4 8 10 9 10 12 14 15
7 8 10 11 8 6 5 3 3 3 4 3 3 4 5 3 4 4 5 6 5 5 5 6 4 4 3 4 5 4 2 2 5 3 2 3 4 7 7 7 10 12 12
5 5 6 9 8 6 5 4 3 3 4 5 4 3 4 5 6 3 6 4 4 5 6 6 5 3 1 2 5 4 2 2 1 3 2 2 4 1 4 8 8 10 13
8 6 6 9 8 4 4 3 3 3 4 4 5 5 5 6 6 4 5 5 3 4 6 6 7 7 3 2 3 4 4 4 3 3 5 3 4 3 1 3 7 11 13
9 8 10 10 8 6 6 5 5 5 4 5 5 5 7 7 5 4 4 5 5 3 5 7 7 6 7 4 4 4 5 5 4 3 3 4 6 5 4 1 3 8 14
10 8 9 10 8 7 6 5 4 3 3 2 4 6 6 6 6 5 5 7 7 5 5 6 5 7 6 7 7 7 6 3 4 4 4 4 4 4 5 5 3 4 9
9 8 9 9 8 6 5 5 5 5 5 4 5 5 4 3 4 6 7 8 7 6 6 6 6 7 8 9 9 10 8 4 3 3 4 6 5 5 5 4 4 4 6
Wind_Direction
129 132 145 147 142 135 130 125 117 114 119 120 118 116 114 105 98 95 86 79 73 69 65 64 62 60 64 68 66 64 73 81 81 81 87 90 81 69 59 35 30 93 83
130 131 146 147 146 146 142 137 130 122 118 120 122 119 113 107 107 102 92 85 78 73 70 67 64 58 61 68 72 69 69 76 79 76 83 96 87 72 60 61 77 90 84
127 133 146 151 154 156 153 150 143 135 126 119 117 113 111 114 112 102 95 91 85 79 72 65 68 63 64 68 73 73 69 62 57 49 15 95 104 88 81 81 86 89 89
131 140 149 151 156 160 164 163 157 148 138 126 116 110 107 107 108 105 101 94 85 80 76 73 76 69 68 67 67 65 61 51 31 359 46 75 87 93 88 89 91 92 93
134 140 141 152 159 165 171 171 167 161 150 141 129 123 116 114 114 110 104 98 91 85 81 82 82 76 72 68 63 57 46 32 7 48 66 78 82 96 95 95 90 92 97
126 129 142 152 161 171 178 177 174 170 159 146 136 133 123 122 119 113 108 100 93 90 85 83 85 82 75 69 60 48 28 10 35 76 72 80 76 89 98 105 101 95 95
127 131 140 149 159 171 178 179 176 170 159 145 140 132 127 124 123 119 116 105 96 93 87 83 89 87 76 65 54 38 13 343 106 103 87 81 78 84 91 103 104 99 98
132 133 134 146 156 166 172 171 165 163 155 145 138 135 133 125 126 126 119 110 102 94 85 90 96 90 78 66 55 33 358 340 33 109 102 86 77 77 81 89 95 95 95
136 138 142 149 155 157 157 158 155 155 151 143 137 137 135 130 130 128 121 117 111 98 88 93 92 85 77 70 63 30 328 323 320 80 100 85 78 72 74 73 75 81 86
149 153 152 155 154 155 150 150 148 148 148 144 141 140 139 138 137 136 126 126 125 113 102 101 103 105 107 109 113 176 289 298 342 77 87 83 80 74 73 75 75 75 82
163 161 153 152 156 154 149 146 144 145 148 146 147 151 153 157 150 149 127 136 137 130 123 131 153 165 166 177 177 219 278 287 81 78 67 73 81 84 83 81 79 77 81
168 165 153 148 151 149 139 142 148 154 157 170 163 171 190 163 135 122 134 139 141 141 146 173 202 213 203 203 193 198 283 63 66 79 65 64 79 95 100 101 97 92 87
165 156 154 155 153 140 125 143 148 156 175 195 174 181 187 139 137 136 146 144 149 162 179 187 226 241 178 134 144 131 78 62 59 61 59 63 75 86 92 98 104 102 96
158 159 153 149 149 145 147 149 154 163 177 197 194 186 170 162 157 153 157 165 175 197 185 194 222 116 71 89 70 78 80 82 79 72 65 73 77 82 88 93 96 95 91
148 153 159 155 153 153 150 151 161 174 172 188 196 198 164 166 155 157 155 169 197 171 175 202 161 79 57 49 58 71 89 95 101 93 78 77 79 80 84 89 90 86 81
153 162 160 172 149 151 151 166 164 165 156 169 171 193 187 191 158 161 158 169 172 141 165 166 97 103 87 67 63 55 90 126 130 124 101 81 76 76 82 88 89 86 83
162 166 159 178 161 160 163 175 165 160 169 166 168 195 188 201 181 160 159 157 153 199 172 136 113 122 112 121 103 79 53 44 100 107 102 103 86 73 75 81 84 83 79
165 165 158 173 171 161 163 171 162 172 162 160 175 205 189 196 205 163 155 160 178 184 139 111 121 120 134 150 132 129 116 119 80 121 118 99 102 93 79 79 79 78 74
158 156 152 163 173 160 156 168 171 173 164 164 174 191 207 196 203 171 156 170 172 151 142 149 151 180 156 125 108 84 83 70 83 78 103 113 111 114 111 93 85 78 73
152 155 148 152 159 149 145 181 169 127 159 167 160 171 207 206 204 175 152 183 172 155 152 157 162 181 134 143 138 110 89 99 74 65 57 102 114 116 135 138 111 89 77
155 158 149 151 150 136 142 173 176 165 139 136 128 165 183 224 230 162 168 194 175 166 169 165 155 154 144 153 113 121 180 181 104 140 145 103 101 140 153 130 133 127 99
144 115 125 129 126 132 148 167 168 176 183 172 174 192 189 220 233 189 184 203 183 170 177 145 128 139 195 177 144 151 174 56 294 166 112 142 148 133 128 136 126 120 120
118 116 96 103 104 119 146 150 168 193 224 172 179 194 209 228 237 188 196 199 197 176 173 157 149 159 187 271 182 155 169 187 190 186 189 201 129 140 141 81 127 114 113
127 129 124 121 137 168 178 187 188 186 195 193 185 188 201 211 222 195 193 217 210 191 184 182 166 160 159 208 273 218 189 165 163 168 202 198 169 181 138 82 72 112 113
126 133 131 138 151 167 182 182 191 209 208 182 153 185 197 199 207 196 206 212 218 203 198 187 184 174 170 178 225 258 249 210 190 147 179 193 174 179 166 169 128 99 118
126 128 127 138 144 156 177 185 196 220 223 198 176 184 183 193 218 219 208 214 213 203 205 197 189 188 187 188 206 242 250 220 219 184 168 179 180 192 167 149 146 132 118
Height
1497 1498 1500 1502 1504 1506 1508 1510 1512 1513 1515 1516 1517 1518 1518 1519 1519 1520 1522 1523 1523 1524 1524 1524 1525 1526 1526 1526 1527 1528 1529 1530 1532 1533 1535 1536 1537 1537 1537 1537 1536 1536 1537
1497 1498 1501 1503 1505 1507 1509 1511 1513 1514 1516 1517 1518 1519 1520 1521 1521 1522 1523 1524 1524 1525 1525 1525 1526 1526 1526 1527 1528 1529 1530 1531 1533 1534 1535 1536 1537 1538 1538 1537 1538 1537 1537
1497 1499 1502 1504 1506 1508 1510 1512 1513 1515 1517 1518 1519 1520 1521 1522 1522 1523 1524 1525 1525 1526 1526 1526 1528 1527 1527 1528 1529 1530 1531 1532 1534 1535 1536 1537 1538 1538 1538 1538 1538 1538 1538
1498 1500 1502 1505 1507 1509 1511 1512 1514 1516 1517 1519 1520 1521 1522 1523 1523 1524 1525 1526 1526 1527 1527 1528 1529 1528 1528 1529 1529 1530 1531 1533 1535 1536 1537 1538 1538 1538 1539 1539 1539 1539 1539
1500 1501 1503 1505 1507 1509 1511 1513 1515 1516 1518 1520 1521 1522 1523 1523 1524 1525 1526 1527 1527 1527 1528 1529 1529 1530 1530 1530 1531 1532 1532 1534 1536 1537 1538 1538 1538 1539 1539 1539 1540 1540 1540
1501 1502 1504 1506 1508 1510 1512 1514 1516 1517 1519 1520 1521 1522 1523 1524 1525 1526 1527 1528 1528 1528 1529 1530 1530 1531 1531 1532 1532 1533 1534 1536 1537 1538 1538 1539 1539 1539 1539 1540 1540 1540 1541
1502 1503 1505 1507 1509 1510 1512 1514 1516 1517 1519 1521 1522 1523 1524 1524 1525 1526 1527 1528 1529 1528 1529 1530 1531 1531 1532 1533 1533 1535 1536 1537 1539 1538 1539 1539 1539 1539 1539 1540 1540 1540 1541
1503 1505 1505 1507 1509 1511 1513 1514 1516 1518 1520 1521 1522 1523 1524 1525 1526 1527 1528 1529 1529 1530 1530 1531 1532 1532 1533 1533 1535 1536 1537 1539 1541 1541 1539 1540 1540 1540 1540 1540 1540 1541 1542
1504 1505 1506 1508 1509 1511 1512 1514 1516 1518 1520 1521 1522 1523 1524 1526 1527 1528 1528 1529 1530 1531 1531 1532 1533 1533 1534 1535 1536 1537 1538 1540 1541 1542 1540 1540 1540 1540 1540 1541 1541 1541 1542
1504 1506 1507 1508 1510 1511 1513 1514 1516 1518 1520 1521 1523 1524 1525 1526 1527 1528 1529 1530 1530 1531 1532 1533 1534 1535 1536 1536 1537 1538 1540 1540 1541 1541 1540 1540 1540 1540 1540 1540 1541 1541 1542
1504 1506 1508 1509 1511 1513 1513 1515 1516 1519 1521 1522 1523 1525 1526 1527 1528 1528 1529 1530 1531 1532 1533 1534 1536 1536 1537 1538 1539 1540 1541 1542 1542 1540 1540 1540 1540 1540 1540 1540 1541 1542 1542
1505 1506 1508 1510 1512 1514 1514 1515 1517 1519 1521 1523 1524 1526 1526 1528 1529 1530 1530 1530 1532 1533 1534 1536 1537 1538 1538 1539 1540 1541 1541 1542 1541 1539 1539 1540 1540 1540 1539 1539 1540 1541 1542
1506 1507 1508 1510 1512 1514 1515 1515 1517 1519 1522 1524 1526 1526 1528 1529 1529 1530 1531 1531 1532 1534 1535 1537 1538 1539 1541 1541 1542 1541 1541 1541 1540 1540 1539 1540 1539 1539 1539 1539 1540 1541 1542
1504 1507 1509 1510 1512 1514 1515 1516 1517 1519 1521 1523 1526 1528 1529 1530 1530 1530 1531 1533 1534 1535 1537 1538 1539 1541 1543 1542 1542 1542 1541 1540 1540 1540 1539 1540 1539 1539 1539 1539 1540 1541 1542
1503 1506 1509 1510 1511 1513 1515 1516 1517 1519 1520 1522 1524 1527 1528 1529 1530 1531 1533 1533 1535 1536 1537 1539 1541 1542 1542 1542 1542 1542 1542 1541 1541 1540 1540 1540 1540 1540 1540 1540 1540 1541 1542
1501 1505 1507 1509 1511 1512 1513 1516 1517 1518 1520 1521 1523 1525 1527 1529 1530 1531 1532 1533 1535 1537 1538 1539 1540 1541 1542 1542 1543 1544 1544 1543 1542 1542 1541 1541 1541 1541 1540 1541 1541 1542 1542
1498 1501 1504 1507 1509 1511 1512 1514 1515 1517 1518 1520 1521 1523 1525 1527 1529 1530 1532 1532 1534 1536 1538 1539 1540 1541 1541 1542 1543 1544 1545 1545 1545 1544 1544 1543 1543 1543 1542 1542 1542 1543 1543
1495 1499 1501 1505 1508 1509 1511 1513 1514 1515 1517 1518 1520 1522 1524 1525 1527 1529 1530 1531 1533 1535 1537 1537 1539 1541 1542 1543 1544 1545 1545 1545 1546 1546 1545 1545 1545 1545 1545 1544 1544 1544 1544
1494 1497 1498 1502 1506 1508 1509 1512 1513 1514 1514 1516 1518 1520 1522 1523 1525 1527 1528 1531 1532 1534 1535 1536 1538 1540 1542 1543 1544 1545 1545 1545 1546 1547 1547 1547 1547 1546 1546 1546 1545 1545 1545
1492 1495 1497 1499 1502 1505 1507 1509 1511 1512 1513 1513 1515 1517 1520 1521 1523 1525 1526 1528 1531 1532 1533 1535 1537 1539 1541 1543 1544 1545 1546 1545 1546 1546 1547 1548 1547 1547 1547 1546 1546 1546 1546
1490 1493 1495 1496 1499 1502 1504 1506 1507 1509 1510 1512 1513 1515 1516 1518 1520 1521 1523 1525 1528 1529 1531 1533 1535 1537 1539 1542 1543 1545 1546 1546 1546 1546 1548 1548 1548 1548 1547 1547 1546 1546 1547
1488 1491 1493 1495 1496 1498 1501 1503 1504 1506 1508 1510 1511 1512 1514 1515 1517 1518 1520 1523 1525 1527 1529 1530 1531 1534 1537 1540 1542 1544 1546 1547 1546 1547 1548 1548 1548 1548 1549 1548 1547 1547 1547
1485 1488 1491 1492 1493 1495 1498 1500 1502 1504 1506 1508 1508 1509 1511 1512 1513 1515 1516 1519 1521 1523 1525 1526 1528 1530 1534 1537 1540 1542 1543 1544 1545 1546 1546 1548 1548 1548 1549 1550 1549 1548 1547
1484 1487 1489 1490 1491 1492 1495 1497 1499 1501 1503 1505 1506 1507 1507 1508 1509 1510 1512 1514 1516 1518 1521 1523 1525 1528 1530 1533 1536 1539 1540 1541 1542 1544 1546 1546 1547 1548 1548 1549 1549 1548 1547
1483 1485 1487 1488 1489 1491 1493 1495 1497 1499 1501 1502 1503 1504 1504 1504 1505 1506 1507 1509 1512 1514 1516 1519 1521 1524 1526 1529 1532 1535 1537 1538 1539 1541 1542 1544 1545 1546 1547 1547 1548 1548 1546
1482 1484 1486 1487 1489 1490 1492 1494 1495 1497 1498 1500 1501 1501 1502 1502 1502 1503 1503 1505 1506 1509 1511 1514 1516 1519 1521 1524 1527 1530 1533 1534 1536 1538 1539 1540 1542 1544 1545 1546 1546 1546 1546